TimeEDT,TemperatureF,Dew PointF,Humidity,Sea Level PressureIn,VisibilityMPH,Wind Direction,Wind SpeedMPH,Gust SpeedMPH,PrecipitationIn,Events,Conditions,WindDirDegrees,DateUTC
12:15 AM,71.6,68.0,88,29.83,3.0,SW,10.4,-,N/A,,Overcast,230,2013-08-10 04:15:00
12:35 AM,71.6,68.0,88,29.83,3.0,WSW,11.5,-,N/A,,Overcast,240,2013-08-10 04:35:00
12:55 AM,71.6,68.0,88,29.83,4.0,WSW,11.5,-,N/A,,Overcast,240,2013-08-10 04:55:00
1:15 AM,71.6,68.0,88,29.83,4.0,WSW,12.7,-,N/A,,Overcast,250,2013-08-10 05:15:00
1:35 AM,69.8,68.0,94,29.83,3.0,West,9.2,-,N/A,,Overcast,260,2013-08-10 05:35:00
1:55 AM,69.8,68.0,94,29.84,4.0,WSW,10.4,-,N/A,,Scattered Clouds,250,2013-08-10 05:55:00
2:15 AM,69.8,68.0,94,29.83,3.0,West,9.2,-,N/A,,Scattered Clouds,260,2013-08-10 06:15:00
2:35 AM,71.6,68.0,88,29.84,4.0,West,10.4,-,N/A,,Scattered Clouds,280,2013-08-10 06:35:00
2:55 AM,71.6,68.0,88,29.85,4.0,West,9.2,-,N/A,,Mostly Cloudy,270,2013-08-10 06:55:00
3:15 AM,69.8,68.0,94,29.85,3.0,West,9.2,-,N/A,,Scattered Clouds,280,2013-08-10 07:15:00
3:35 AM,69.8,68.0,94,29.86,3.0,West,10.4,-,N/A,,Scattered Clouds,280,2013-08-10 07:35:00
3:55 AM,69.8,68.0,94,29.86,3.0,West,9.2,-,N/A,,Scattered Clouds,280,2013-08-10 07:55:00
4:15 AM,69.8,68.0,94,29.87,3.0,West,8.1,-,N/A,,Mostly Cloudy,280,2013-08-10 08:15:00
4:35 AM,69.8,68.0,94,29.87,3.0,West,6.9,-,N/A,,Mostly Cloudy,280,2013-08-10 08:35:00
4:55 AM,69.8,68.0,94,29.88,10.0,NW,5.8,-,N/A,,Partly Cloudy,310,2013-08-10 08:55:00
5:15 AM,69.8,66.2,88,29.89,8.0,WNW,5.8,-,N/A,,Clear,290,2013-08-10 09:15:00
5:35 AM,69.8,66.2,88,29.89,6.0,WNW,4.6,-,N/A,,Clear,290,2013-08-10 09:35:00
5:55 AM,69.8,66.2,88,29.90,9.0,WNW,6.9,-,N/A,,Clear,290,2013-08-10 09:55:00
6:15 AM,69.8,64.4,83,29.91,10.0,WNW,6.9,-,N/A,,Clear,290,2013-08-10 10:15:00
6:35 AM,69.8,62.6,78,29.91,10.0,WNW,8.1,-,N/A,,Clear,300,2013-08-10 10:35:00
6:55 AM,69.8,62.6,78,29.92,10.0,WNW,9.2,-,N/A,,Clear,300,2013-08-10 10:55:00
7:15 AM,69.8,62.6,78,29.92,10.0,WNW,8.1,16.1,N/A,,Clear,300,2013-08-10 11:15:00
7:35 AM,69.8,62.6,78,29.93,10.0,WNW,8.1,-,N/A,,Clear,300,2013-08-10 11:35:00
7:55 AM,71.6,62.6,73,29.93,10.0,WNW,9.2,-,N/A,,Clear,300,2013-08-10 11:55:00
8:15 AM,71.6,62.6,73,29.93,10.0,NW,10.4,-,N/A,,Clear,310,2013-08-10 12:15:00
8:35 AM,71.6,62.6,73,29.94,10.0,WNW,9.2,17.3,N/A,,Clear,300,2013-08-10 12:35:00
8:55 AM,71.6,62.6,73,29.93,10.0,NW,11.5,16.1,N/A,,Clear,310,2013-08-10 12:55:00
9:15 AM,71.6,62.6,73,29.94,10.0,WNW,6.9,-,N/A,,Clear,300,2013-08-10 13:15:00
9:35 AM,73.4,62.6,69,29.94,10.0,WNW,10.4,17.3,N/A,,Clear,300,2013-08-10 13:35:00
10:15 AM,75.2,64.4,69,29.95,10.0,NW,11.5,16.1,N/A,,Clear,310,2013-08-10 14:15:00
10:35 AM,75.2,64.4,69,29.95,10.0,WNW,8.1,-,N/A,,Clear,300,2013-08-10 14:35:00
10:55 AM,75.2,64.4,69,29.95,10.0,WNW,11.5,-,N/A,,Clear,290,2013-08-10 14:55:00
11:15 AM,75.2,64.4,69,29.95,10.0,West,12.7,-,N/A,,Clear,280,2013-08-10 15:15:00
11:35 AM,77.0,64.4,65,29.95,10.0,West,8.1,-,N/A,,Clear,280,2013-08-10 15:35:00
11:55 AM,78.8,64.4,61,29.95,10.0,West,10.4,-,N/A,,Clear,270,2013-08-10 15:55:00
12:15 PM,78.8,64.4,61,29.95,10.0,West,12.7,-,N/A,,Clear,270,2013-08-10 16:15:00
12:35 PM,78.8,62.6,57,29.95,10.0,West,11.5,-,N/A,,Clear,260,2013-08-10 16:35:00
12:55 PM,78.8,64.4,61,29.95,10.0,WSW,12.7,18.4,N/A,,Clear,250,2013-08-10 16:55:00
1:15 PM,77.0,62.6,61,29.95,10.0,West,11.5,16.1,N/A,,Clear,260,2013-08-10 17:15:00
1:35 PM,77.0,62.6,61,29.95,10.0,WSW,13.8,19.6,N/A,,Clear,250,2013-08-10 17:35:00
1:55 PM,77.0,64.4,65,29.95,10.0,WSW,12.7,-,N/A,,Clear,250,2013-08-10 17:55:00
2:15 PM,78.8,62.6,57,29.95,10.0,WSW,15.0,19.6,N/A,,Clear,240,2013-08-10 18:15:00
2:35 PM,78.8,62.6,57,29.95,10.0,WSW,11.5,19.6,N/A,,Clear,250,2013-08-10 18:35:00
2:55 PM,77.0,62.6,61,29.95,10.0,WSW,12.7,18.4,N/A,,Clear,240,2013-08-10 18:55:00
3:15 PM,78.8,64.4,61,29.95,10.0,SW,15.0,-,N/A,,Clear,230,2013-08-10 19:15:00
3:35 PM,77.0,64.4,65,29.95,10.0,SW,11.5,-,N/A,,Clear,230,2013-08-10 19:35:00
3:55 PM,77.0,64.4,65,29.95,10.0,WSW,12.7,-,N/A,,Clear,240,2013-08-10 19:55:00
4:15 PM,77.0,64.4,65,29.95,10.0,SW,15.0,18.4,N/A,,Clear,230,2013-08-10 20:15:00
4:35 PM,75.2,64.4,69,29.95,10.0,SW,15.0,-,N/A,,Clear,230,2013-08-10 20:35:00
4:55 PM,77.0,62.6,61,29.95,10.0,WSW,15.0,20.7,N/A,,Clear,240,2013-08-10 20:55:00
5:15 PM,75.2,64.4,69,29.95,10.0,WSW,15.0,20.7,N/A,,Clear,240,2013-08-10 21:15:00
5:35 PM,75.2,64.4,69,29.95,10.0,WSW,16.1,20.7,N/A,,Clear,240,2013-08-10 21:35:00
5:55 PM,75.2,62.6,65,29.95,10.0,WSW,15.0,-,N/A,,Clear,240,2013-08-10 21:55:00
6:15 PM,75.2,64.4,69,29.95,10.0,WSW,13.8,-,N/A,,Clear,240,2013-08-10 22:15:00
6:35 PM,73.4,64.4,73,29.95,10.0,SW,11.5,-,N/A,,Clear,220,2013-08-10 22:35:00
6:55 PM,73.4,62.6,69,29.95,10.0,SW,11.5,-,N/A,,Partly Cloudy,230,2013-08-10 22:55:00
7:15 PM,73.4,64.4,73,29.95,10.0,WSW,8.1,-,N/A,,Partly Cloudy,240,2013-08-10 23:15:00
7:35 PM,71.6,64.4,78,29.96,10.0,WSW,8.1,-,N/A,,Scattered Clouds,240,2013-08-10 23:35:00
7:55 PM,73.4,62.6,69,29.97,10.0,WSW,6.9,-,N/A,,Mostly Cloudy,240,2013-08-10 23:55:00
8:15 PM,71.6,62.6,73,29.97,10.0,SW,8.1,-,N/A,,Scattered Clouds,230,2013-08-11 00:15:00
8:35 PM,71.6,62.6,73,29.98,10.0,West,6.9,-,N/A,,Mostly Cloudy,280,2013-08-11 00:35:00
8:55 PM,71.6,62.6,73,29.99,10.0,WSW,4.6,-,N/A,,Mostly Cloudy,250,2013-08-11 00:55:00
9:15 PM,71.6,62.6,73,30.00,10.0,NW,6.9,-,N/A,,Mostly Cloudy,310,2013-08-11 01:15:00
9:35 PM,71.6,62.6,73,30.00,10.0,NNW,6.9,-,N/A,,Mostly Cloudy,330,2013-08-11 01:35:00
9:55 PM,71.6,62.6,73,30.01,10.0,NNW,5.8,-,N/A,,Scattered Clouds,330,2013-08-11 01:55:00
10:15 PM,71.6,60.8,69,30.01,10.0,NW,8.1,-,N/A,,Scattered Clouds,320,2013-08-11 02:15:00
10:35 PM,71.6,59.0,64,30.02,10.0,NNW,6.9,-,N/A,,Scattered Clouds,330,2013-08-11 02:35:00
10:55 PM,71.6,57.2,60,30.02,10.0,NNW,9.2,-,N/A,,Scattered Clouds,340,2013-08-11 02:55:00
11:15 PM,69.8,57.2,64,30.03,10.0,NNW,8.1,-,N/A,,Scattered Clouds,330,2013-08-11 03:15:00
11:35 PM,69.8,57.2,64,30.04,10.0,NNW,5.8,-,N/A,,Clear,330,2013-08-11 03:35:00
11:55 PM,68.0,57.2,68,30.04,10.0,NNW,3.5,-,N/A,,Clear,340,2013-08-11 03:55:00